Tracking 23885 objects as of 28-Nov-2021
HD Live streaming from Space Station
objects crossing your sky now

SPACEBEE-36

Track SPACEBEE-36 now!
10-day predictions


NORAD ID: 46935
Int'l Code: 2020-085G
Perigee: 482.9 km
Apogee: 502.9 km
Inclination: 97.4 °
Period: 94.3 minutes
Semi major axis: 6863 km
RCS: Unknown
Launch date: November 20, 2020
Source: United States (US)
Launch site: Rocket Lab Launch Complex (RLLC)
aabbcc
Your satellite tracking list
Your tracking list is empty




NASA's NSSDC Master Catalog

Two Line Element Set (TLE):
1 46935U 20085G   21331.63234175  .00010640  00000-0  40698-3 0  9994
2 46935  97.4128 106.5853 0014589  73.3271 286.9604 15.26666409 56717
Source of the keplerian elements: AFSPC